Content
SEND FEEDBACK

Daily
Averages
Monthly
Summary
United States of America

LINCOLN, NORTH DAKOTA


Home > North America > United States > North Dakota
Elevation: 506 meters     Latitude: 46 46N     Longitude: 100 45W

WEATHER
 
SELECT A DAY
Number of Records: 204,414;   Date Range: 1/1/95 - 7/29/14
 
SHARE

PRINT THIS DATA

[ ← Previous Day ]
WEATHER ALMANAC - 13 FEBRUARY, 2013
[ Next Day → ]
[ °F ]   °C
Weather ElementAverageHighLow
Temperature0.7 °C3.3 °C (12:52 pm)-1.1 °C (3:52 am)
Dewpoint-1.4 °C0.6 °C (10:52 am)-3.9 °C (1:52 am)
Humidity85.8 %96 % (9:03 am)75 % (2:49 pm)
Barometer1005.4 hPa1009.8 hPa (9:52 pm)1001.7 hPa (10:27 am)
Wind Speed13.5 km/h31.5 km/h (3:07 pm)
Wind Gust51.8 km/h (4:37 pm)
Weather ElementAverage
Visibility11.6 km
Wind DirectionWSW (253.4 °)

Weather ElementTotal
Precipitation2.29 mm
Heating Degree Days17.3 (Base 18.3)
Averaged from 47 records on 13 February, 2013
WEATHER CONDITIONS BREAKOUT
WIND DIRECTION BREAKOUT
WEATHER BY HOUR - 13 FEBRUARY, 2013
[ °F ]   °C
Local TimeTemperatureDewpointHumidityBarometerVisibilityWind DirectionWind SpeedGust SpeedPrecipitationEventsConditions
1:52 AM-0.6 °C-3.9 °C79 %1009.5 hPa16.1 kmWSW (250°)13 km/hMostly Cloudy
2:52 AM-0.6 °C-3.3 °C82 %1008.8 hPa16.1 kmWNW (290°)9.3 km/hOvercast
3:52 AM-1.1 °C-3.9 °C82 %1008.1 hPa16.1 kmSW (230°)5.6 km/hOvercast
4:52 AM-1.1 °C-3.9 °C82 %1006.8 hPa16.1 kmSSW (210°)7.4 km/hScattered Clouds
5:52 AM-1.1 °C-3.9 °C82 %1006.1 hPa16.1 kmCalmOvercast
6:52 AM-1.1 °C-3.3 °C85 %1005.4 hPa16.1 kmCalm0 mmOvercast
7:35 AM-1.1 °C-2.8 °C88 %1003.4 hPa6.4 kmSouth (170°)5.6 km/h0 mmSnowLight Snow
7:52 AM-1.1 °C-2.8 °C88 %1005.1 hPa4 kmSSE (150°)7.4 km/h0 mmSnowLight Snow
7:57 AM-1.1 °C-2.8 °C88 %1003 hPa4.8 kmSSE (160°)5.6 km/h0 mmSnowLight Snow
8:52 AM-1.1 °C-2.2 °C92 %1004.7 hPa4 kmCalm0 mmSnowLight Snow
9:03 AM-1.1 °C-1.7 °C96 %1002.4 hPa2.4 kmCalm0 mmSnowLight Snow
9:17 AM-0.6 °C-1.7 °C92 %1002.4 hPa2.9 kmSouth (170°)5.6 km/h0.25 mmSnowLight Snow
9:25 AM-0.6 °C-1.7 °C92 %1002 hPa3.2 kmSSW (210°)5.6 km/h0.25 mmSnowLight Snow
9:34 AM-0.6 °C-1.7 °C92 %1002 hPa1.9 kmSW (230°)5.6 km/h0.25 mmSnowLight Snow
9:47 AM0 °C-1 °C93 %1002 hPa1.3 kmWSW (240°)5.6 km/h0.25 mmSnowLight Snow
9:52 AM0 °C-1.1 °C92 %1004.1 hPa1.3 kmWSW (240°)5.6 km/h0.51 mmSnowLight Snow
10:12 AM0.6 °C-0.6 °C92 %1002 hPa1.9 kmWSW (240°)9.3 km/h0.25 mmSnowLight Snow
10:27 AM0.6 °C0 °C96 %1001.7 hPa4.8 kmWest (260°)7.4 km/h0.25 mmSnowLight Snow
10:52 AM1.7 °C0.6 °C92 %1003.4 hPa16.1 kmWNW (300°)7.4 km/h0.25 mmOvercast
11:16 AM2.2 °C0 °C86 %1001.7 hPa16.1 kmWest (280°)16.7 km/hOvercast
11:50 AM2 °C0 °C87 %1001.7 hPa16.1 kmWest (280°)20.4 km/hOvercast
11:52 AM2.2 °C0 °C86 %1003.4 hPa16.1 kmWest (280°)24.1 km/hOvercast
12:17 PM2.2 °C0 °C86 %1001.7 hPa16.1 kmWNW (290°)25.9 km/hOvercast
12:52 PM3.3 °C0 °C79 %1003.4 hPa16.1 kmWNW (290°)29.6 km/h38.9 km/hOvercast
1:52 PM3.3 °C0 °C79 %1003.7 hPa16.1 kmNW (310°)29.6 km/h40.7 km/hOvercast
2:49 PM3 °C-1 °C75 %1002.4 hPa16.1 kmNW (310°)29.6 km/h46.3 km/hMostly Cloudy
2:52 PM3.3 °C-0.6 °C76 %1004.1 hPa16.1 kmNW (310°)25.9 km/h46.3 km/hMostly Cloudy
3:07 PM3.3 °C-0.6 °C76 %1002.7 hPa16.1 kmNW (320°)31.5 km/hMostly Cloudy
3:52 PM3.3 °C-0.6 °C76 %1005.1 hPa16.1 kmNW (320°)24.1 km/hOvercast
4:15 PM2.8 °C-1.1 °C76 %1003.4 hPa16.1 kmNW (320°)27.8 km/h40.7 km/hOvercast
4:23 PM2.2 °C-1.1 °C79 %1003.7 hPa16.1 kmNW (320°)22.2 km/h42.6 km/hOvercast
4:37 PM2.2 °C-1.7 °C76 %1003.7 hPa16.1 kmNW (310°)27.8 km/h51.8 km/hOvercast
4:52 PM2.2 °C-1.7 °C76 %1006.1 hPa16.1 kmNNW (330°)29.6 km/h38.9 km/hOvercast
5:52 PM1.1 °C-1.7 °C82 %1007.5 hPa16.1 kmNNW (330°)29.6 km/h38.9 km/hOvercast
6:52 PM1.1 °C-1.7 °C82 %1008.5 hPa16.1 kmNNW (330°)22.2 km/hOvercast
7:33 PM0.6 °C-1.1 °C89 %1007.5 hPa4.8 kmNorth (350°)11.1 km/h0 mmSnowLight Snow
7:41 PM0.6 °C-1.1 °C89 %1007.5 hPa8 kmNNW (340°)7.4 km/h0 mmSnowLight Snow
7:52 PM0.6 °C-1.1 °C89 %1009.5 hPa11.3 kmNNW (330°)9.3 km/h0 mmOvercast
8:13 PM0.6 °C-1.1 °C89 %1007.8 hPa12.9 kmNNW (330°)13 km/h0 mmSnowLight Snow
8:20 PM0.6 °C-1.1 °C89 %1007.8 hPa14.5 kmNNW (330°)11.1 km/h0 mmSnowLight Snow
8:41 PM0.6 °C-1.1 °C89 %1007.8 hPa11.3 kmNW (320°)14.8 km/h0 mmSnowLight Snow
8:52 PM0.6 °C-1.1 °C89 %1009.5 hPa16.1 kmNW (320°)11.1 km/h0 mmOvercast
9:50 PM0 °C-2 °C87 %1007.8 hPa8 kmWest (280°)7.4 km/h0 mmSnowLight Snow
9:52 PM0 °C-1.7 °C88 %1009.8 hPa8 kmWest (280°)9.3 km/h0 mmSnowLight Snow
10:52 PM0 °C-1.1 °C92 %1009.8 hPa12.9 kmWSW (250°)7.4 km/h0 mmOvercast
11:41 PM0 °C-1.1 °C92 %1008.1 hPa12.9 kmWSW (250°)7.4 km/h0 mmOvercast
11:52 PM0.6 °C-1.1 °C89 %1009.8 hPa14.5 kmWSW (250°)5.6 km/h0 mmOvercast
Hourly data recorded from KBIS, located 0 kilometers away from Lincoln, North Dakota







STORIES FROM OUR PARTNERS